This is the latest recevied weather packets stored in our database for station/object VR2OT-10. If no packets are shown the sender has not sent any weather packets the latest 10 day(s).
| Time | Temp. | Humidity | Pressure | Rain* | Wind** | Luminosity | Snow |
|---|---|---|---|---|---|---|---|
| 1777992437 | 20.56° C | 93% | 1013.9 hPa | - | 2.68 m/s, 135° | - | - |
| 1777990637 | 20° C | 92% | 1014 hPa | - | 3.13 m/s, 135° | - | - |
| 1777989738 | 20° C | 92% | 1013.9 hPa | - | 2.68 m/s, 90° | - | - |
| 1777988838 | 20° C | 92% | 1013.8 hPa | - | 3.13 m/s, 135° | - | - |
| 1777987038 | 20° C | 93% | 1013.7 hPa | - | 3.13 m/s, 90° | - | - |
| 1777986138 | 20° C | 94% | 1013.6 hPa | - | 2.68 m/s, 135° | - | - |
| 1777985238 | 20° C | 92% | 1013.5 hPa | - | 2.68 m/s, 135° | - | - |
| 1777984339 | 20° C | 94% | 1013.4 hPa | - | 1.34 m/s, 90° | - | - |
| 1777983437 | 20° C | 93% | 1013.4 hPa | - | 1.34 m/s, 135° | - | - |
| 1777981637 | 20° C | 93% | 1013.3 hPa | - | 2.68 m/s, 135° | - | - |
| 1777980737 | 20° C | 93% | 1013.1 hPa | - | 0.45 m/s, 135° | - | - |
| 1777979838 | 20° C | 92% | 1013 hPa | - | 0.45 m/s, 90° | - | - |
| 1777978939 | 20° C | 91% | 1012.9 hPa | - | 1.79 m/s, 135° | - | - |
| 1777978038 | 20° C | 92% | 1012.8 hPa | - | 1.79 m/s, 135° | - | - |
| 1777977138 | 20° C | 91% | 1012.8 hPa | - | 1.79 m/s, 90° | - | - |
| 1777976238 | 20° C | 91% | 1012.7 hPa | - | 3.13 m/s, 90° | - | - |
| 1777975338 | 20° C | 90% | 1012.6 hPa | - | 1.79 m/s, 90° | - | - |
| 1777974438 | 20° C | 89% | 1012.5 hPa | - | 1.34 m/s, 135° | - | - |
| 1777973538 | 20° C | 89% | 1012.4 hPa | - | 3.13 m/s, 135° | - | - |
| 1777972637 | 20° C | 90% | 1012.5 hPa | - | 3.13 m/s, 135° | - | - |
| 1777970838 | 20° C | 88% | 1012.5 hPa | - | 3.13 m/s, 90° | - | - |
| 1777969938 | 20° C | 89% | 1012.5 hPa | - | 2.68 m/s, 90° | - | - |
| 1777969038 | 20° C | 89% | 1012.4 hPa | - | 4.02 m/s, 90° | - | - |
| 1777968139 | 20° C | 90% | 1012.6 hPa | - | 3.13 m/s, 90° | - | - |
| 1777967238 | 20° C | 89% | 1012.7 hPa | - | 2.24 m/s, 135° | - | - |
* Rain since midnight (hover to see other rain measurements)
** Current wind speed in m/s (hover to see current wind gust speed)